Weather History for Monarch Pass, CO

Change the Weather History Date:

Tuesday, October 9, 2012

  Actual Average (KGUC) Record (KGUC)
Temperature  
Mean Temperature 37 °F -  
Max Temperature 44 °F 60 °F 71 °F (1996)
Min Temperature 30 °F 24 °F 19 °F (1997)
Degree Days  
Heating Degree Days 28    
Moisture  
Dew Point 10 °F    
Average Humidity 35    
Maximum Humidity 44    
Minimum Humidity 25    
Precipitation  
Precipitation 0.00 in - - ()
Sea Level Pressure  
Sea Level Pressure 30.40 in    
Wind  
Wind Speed 36 mph (West)    
Max Wind Speed 44 mph    
Max Gust Speed 56 mph    
Averages and records for this station are not official NWS values.
T = Trace of Precipitation, MM = Missing Value Source: NWS Daily Summary

Daily Weather History Graph

Daily Weather History Graph

Search for Another Location

Airport:

Trip Planner

Search our weather history database for the weather conditions in past years. The results will help you decide how hot, cold, wet, or windy it might be!

Date:

Astronomy

Oct. 09, 2012 Rise Set
Actual Time 7:09 AM MDT 6:35 PM MDT
Civil Twilight 6:42 AM MDT 7:01 PM MDT
Nautical Twilight 6:11 AM MDT 7:32 PM MDT
Astronomical Twilight 5:41 AM MDT 8:02 PM MDT
Moon 12:52 AM MDT (10/9) 3:00 PM MDT (10/9)
Length of Visible Light 12h 19m
Length of Day
11h 26m
Last Quarter, 36% of the Moon is Illuminated
Oct 9
Last Quarter
Oct 15
New
Oct 21
First Quarter
Oct 29
Full
Nov 6
Last Quarter

Hourly Weather History & Observations

Time (MDT) Temp. Windchill Dew Point Humidity Pressure Visibility Wind Dir Wind Speed Gust Speed Precip Events Conditions
12:13 AM 30.2 °F 14.5 °F 3.2 °F 32% 30.35 in - West 33.4 mph 36.8 mph N/A   Clear
12:53 AM 30.2 °F 13.1 °F 3.2 °F 32% 30.34 in - West 41.4 mph 46.0 mph N/A   Clear
1:13 AM 32.0 °F 15.2 °F 3.2 °F 30% 30.33 in - West 43.7 mph 48.3 mph N/A   Clear
2:13 AM 32.0 °F 15.4 °F 5.0 °F 32% 30.33 in - West 42.6 mph 47.2 mph N/A   Clear
2:33 AM 32.0 °F - 5.0 °F 32% 30.34 in - North - - N/A   Clear
2:53 AM 30.2 °F - 5.0 °F 34% 30.34 in - North - - N/A   Clear
3:13 AM 30.2 °F 13.5 °F 5.0 °F 34% 30.33 in - West 39.1 mph 43.7 mph N/A   Clear
3:33 AM 30.2 °F 13.1 °F 5.0 °F 34% 30.33 in - West 41.4 mph 47.2 mph N/A   Clear
3:53 AM 32.0 °F 15.6 °F 6.8 °F 35% 30.32 in - West 41.4 mph - N/A   Clear
4:13 AM 32.0 °F 16.2 °F 8.6 °F 38% 30.33 in - West 38.0 mph 48.3 mph N/A   Clear
4:33 AM 32.0 °F - 8.6 °F 38% 30.33 in - North - - N/A   Clear
4:53 AM 32.0 °F 16.0 °F 8.6 °F 38% 30.33 in - West 39.1 mph - N/A   Clear
5:13 AM 32.0 °F - 10.4 °F 41% 30.33 in - North - - N/A   Clear
5:33 AM 32.0 °F - 10.4 °F 41% 30.34 in - North - - N/A   Clear
6:13 AM 30.2 °F 13.1 °F 10.4 °F 44% 30.33 in - West 41.4 mph 46.0 mph N/A   Clear
6:33 AM 30.2 °F 12.7 °F 10.4 °F 44% 30.33 in - West 43.7 mph 52.9 mph N/A   Clear
6:53 AM 30.2 °F - 8.6 °F 40% 30.34 in - North - - N/A   Clear
7:13 AM 30.2 °F - 8.6 °F 40% 30.35 in - North - - N/A   Clear
7:33 AM 30.2 °F 13.7 °F 10.4 °F 44% 30.34 in - West 38.0 mph - N/A   Clear
7:53 AM 30.2 °F 13.7 °F 10.4 °F 44% 30.35 in - West 38.0 mph 48.3 mph N/A   Clear
8:13 AM 30.2 °F 13.7 °F 10.4 °F 44% 30.35 in - West 38.0 mph 47.2 mph N/A   Clear
8:33 AM 30.2 °F 13.9 °F 10.4 °F 44% 30.36 in - West 36.8 mph 42.6 mph N/A   Clear
8:49 AM 32.0 °F 17.0 °F 12.2 °F 44% 30.37 in - West 33.4 mph 39.1 mph N/A   Clear
9:02 AM 32.0 °F 17.0 °F 12.2 °F 44% 30.37 in - West 33.4 mph 41.4 mph N/A   Clear
9:23 AM 32.0 °F 16.7 °F 12.2 °F 44% 30.38 in - West 34.5 mph 40.3 mph N/A   Clear
9:41 AM 32.0 °F 16.3 °F 12.2 °F 44% 30.38 in - West 36.8 mph 47.2 mph N/A   Clear
10:01 AM 33.8 °F 18.8 °F 14.0 °F 44% 30.38 in - West 36.8 mph 47.2 mph N/A   Clear
10:24 AM 35.6 °F 21.1 °F 14.0 °F 41% 30.39 in - West 38.0 mph 48.3 mph N/A   Clear
10:34 AM 35.6 °F 21.1 °F 12.2 °F 38% 30.40 in - West 38.0 mph 56.4 mph N/A   Clear
11:03 AM 37.4 °F 23.5 °F 12.2 °F 36% 30.40 in - West 39.1 mph 49.5 mph N/A   Unknown
11:22 AM 37.4 °F 23.8 °F 12.2 °F 36% 30.39 in - West 36.8 mph 51.8 mph N/A   Clear
11:42 AM 37.4 °F 24.2 °F 12.2 °F 36% 30.39 in - West 34.5 mph 51.8 mph N/A   Clear
12:02 PM 39.2 °F 26.8 °F 12.2 °F 33% 30.40 in - West 33.4 mph 47.2 mph N/A   Clear
12:20 PM 41.0 °F 28.3 °F 12.2 °F 31% 30.40 in - West 40.3 mph 48.3 mph N/A   Clear
12:53 PM 41.0 °F 29.5 °F 12.2 °F 31% 30.40 in - WSW 32.2 mph 47.2 mph N/A   Clear
1:13 PM 42.8 °F 30.7 °F 12.2 °F 29% 30.39 in - West 41.4 mph 50.6 mph N/A   Clear
1:24 PM 42.8 °F 31.0 °F 12.2 °F 29% 30.39 in - West 39.1 mph 49.5 mph N/A   Clear
1:39 PM 42.8 °F 32.7 °F 12.2 °F 29% 30.39 in - West 27.6 mph 47.2 mph N/A   Clear
1:58 PM 44.6 °F 33.8 °F 10.4 °F 25% 30.39 in - West 36.8 mph 49.5 mph N/A   Clear
2:19 PM 44.6 °F 35.5 °F 12.2 °F 27% 30.40 in - West 25.3 mph 46.0 mph N/A   Clear
2:40 PM 44.6 °F 33.6 °F 12.2 °F 27% 30.40 in - West 38.0 mph 46.0 mph N/A   Clear
3:00 PM 44.6 °F 34.6 °F 12.2 °F 27% 30.41 in - West 31.1 mph 46.0 mph N/A   Clear
3:21 PM 44.6 °F 33.9 °F 10.4 °F 25% 30.41 in - West 35.7 mph 46.0 mph N/A   Clear
3:38 PM 44.6 °F 34.2 °F 10.4 °F 25% 30.41 in - West 33.4 mph 47.2 mph N/A   Clear
4:01 PM 44.6 °F 34.1 °F 10.4 °F 25% 30.41 in - West 34.5 mph 49.5 mph N/A   Clear
4:22 PM 44.6 °F 33.8 °F 10.4 °F 25% 30.42 in - West 36.8 mph 46.0 mph N/A   Clear
4:42 PM 44.6 °F 34.4 °F 10.4 °F 25% 30.42 in - West 32.2 mph 46.0 mph N/A   Clear
5:01 PM 44.6 °F 34.7 °F 10.4 °F 25% 30.43 in - WSW 29.9 mph 46.0 mph N/A   Clear
5:22 PM 44.6 °F 34.7 °F 10.4 °F 25% 30.43 in - WSW 29.9 mph 42.6 mph N/A   Clear
5:42 PM 42.8 °F 31.9 °F 10.4 °F 27% 30.43 in - WSW 32.2 mph 43.7 mph N/A   Clear
6:02 PM 41.0 °F 29.3 °F 8.6 °F 26% 30.44 in - WSW 33.4 mph 46.0 mph N/A   Clear
6:21 PM 41.0 °F 29.5 °F 8.6 °F 26% 30.44 in - West 32.2 mph 40.3 mph N/A   Clear
6:43 PM 37.4 °F 25.2 °F 10.4 °F 33% 30.45 in - West 28.8 mph 38.0 mph N/A   Clear
7:01 PM 37.4 °F 23.8 °F 10.4 °F 33% 30.44 in - West 36.8 mph 44.9 mph N/A   Clear
7:24 PM 37.4 °F 23.6 °F 10.4 °F 33% 30.45 in - West 38.0 mph 43.7 mph N/A   Clear
7:44 PM 37.4 °F 25.2 °F 10.4 °F 33% 30.46 in - West 28.8 mph 36.8 mph N/A   Clear
8:04 PM 35.6 °F 23.0 °F 10.4 °F 35% 30.47 in - West 27.6 mph 36.8 mph N/A   Clear
8:24 PM 35.6 °F 23.4 °F 10.4 °F 35% 30.48 in - West 25.3 mph 34.5 mph N/A   Clear
8:43 PM 35.6 °F 23.2 °F 12.2 °F 38% 30.48 in - West 26.5 mph 33.4 mph N/A   Clear
9:04 PM 35.6 °F 24.0 °F 12.2 °F 38% 30.49 in - West 23.0 mph 32.2 mph N/A   Clear
9:24 PM 35.6 °F 23.0 °F 14.0 °F 41% 30.49 in - West 27.6 mph 34.5 mph N/A   Clear
9:43 PM 35.6 °F 24.5 °F 14.0 °F 41% 30.50 in - West 20.7 mph 31.1 mph N/A   Clear
10:03 PM 35.6 °F 23.4 °F 14.0 °F 41% 30.49 in - West 25.3 mph 28.8 mph N/A   Clear
10:22 PM 35.6 °F 23.2 °F 14.0 °F 41% 30.50 in - West 26.5 mph - N/A   Clear
10:41 PM 35.6 °F 23.2 °F 14.0 °F 41% 30.51 in - West 26.5 mph 32.2 mph N/A   Clear
11:00 PM 33.8 °F 21.3 °F 14.0 °F 44% 30.51 in - West 24.2 mph - N/A   Clear
11:21 PM 33.8 °F 21.6 °F 14.0 °F 44% 30.51 in - West 23.0 mph - N/A   Clear
11:42 PM 33.8 °F 21.9 °F 14.0 °F 44% 30.51 in - WSW 21.9 mph - N/A   Clear